This demonstration page uses our WeatherBlox Daily Observations layout. Learn more.

Left ArrowRight Arrow

Hourly Observations for May 30, 2020

Temp ( °F °C ) Dew Point ( °F °C ) Humidity (%) Winds ( mph kmh ) Pressure ( in mb ) Visibility ( mi km ) Precip ( " mm )
12:53 am 00:53 Clear 73 22.8 56 13.3 55 55 SSW 14 22 29.74 1007 10 16 0.00 0.00
1:53 am 01:53 Mostly Cloudy 72 22.2 54 12.2 53 53 SW 12 19 29.76 1008 10 16 0.00 0.00
2:53 am 02:53 Mostly Clear 69 20.6 52 11.1 55 55 S 10 17 29.77 1008 10 16 0.00 0.00
3:53 am 03:53 Clear 67 19.4 53 11.7 61 61 S 12 19 29.77 1008 10 16 0.00 0.00
4:53 am 04:53 Mostly Clear 65 18.3 53 11.7 66 66 S 15 24 29.80 1009 10 16 0.00 0.00
5:53 am 05:53 Cloudy 63 17.2 53 11.7 70 70 SSE 14 22 29.83 1010 10 16 0.00 0.00
6:16 am 06:16 Cloudy 62 16.7 53 11.7 73 73 S 15 24 29.86 1011 10 16 0.00 0.00
6:38 am 06:38 Cloudy 63 17.2 53 11.7 70 70 S 12 19 29.87 1012 10 16 0.00 0.00
6:53 am 06:53 Cloudy 63 17.2 53 11.7 70 70 SSW 10 17 29.86 1011 10 16 0.00 0.00
7:27 am 07:27 Cloudy with Nearby Thunderstorms 63 17.2 53 11.7 70 70 S 15 24 29.89 1012 10 16 0.00 0.00
7:35 am 07:35 Cloudy with Thunderstorms 62 16.7 53 11.7 73 73 SSW 12 19 29.88 1012 10 16 0.00 0.00
7:53 am 07:53 Cloudy with Thunderstorms 60 15.6 56 13.3 86 86 S 13 20 29.90 1013 10 16 0.04 1.02
8:04 am 08:04 Cloudy with Nearby Thunderstorms 60 15.6 55 12.8 84 84 S 8 13 29.93 1013 10 16 0.00 0.00
8:17 am 08:17 Cloudy with Light Rain 59 15 56 13.3 90 90 SSW 8 13 29.93 1013 10 16 0.02 0.51
8:53 am 08:53 Cloudy with Heavy Rain 59 15 56 13.3 90 90 SSW 12 19 29.92 1013 10 16 0.10 2.54
9:32 am 09:32 Cloudy with Rain 58 14.4 56 13.3 93 93 S 9 15 29.95 1014 5 8 0.11 2.79
9:48 am 09:48 Cloudy with Rain 57 14 55 13 94 94 SSW 6 9 29.95 1014 5 8 0.14 3.56
9:53 am 09:53 Cloudy with Rain 59 15 56 13.3 90 90 SSW 6 9 29.94 1014 5 8 0.15 3.81
10:53 am 10:53 Cloudy with Rain 58 14.4 56 13.3 93 93 N 5 7 29.95 1014 5 8 0.15 3.81
11:53 am 11:53 Cloudy 60 15.6 57 13.9 90 90 undefined N/A 29.96 1015 10 16 0.08 2.03
12:53 pm 12:53 Mostly Cloudy 63 17.2 58 14.4 84 84 N 6 9 29.95 1014 10 16 0.00 0.00
1:22 pm 13:22 Cloudy 64 17.8 56 13.3 75 75 NE 6 9 29.94 1014 10 16 0.00 0.00
1:40 pm 13:40 Cloudy 65 18.3 58 14.4 78 78 VRB 5 7 29.94 1014 10 16 0.00 0.00
1:50 pm 13:50 Cloudy 64 18 57 14 78 78 NNE 8 13 29.93 1014 10 16 0.00 0.00
1:53 pm 13:53 Cloudy 65 18.3 57 13.9 76 76 NNE 7 11 29.93 1014 10 16 0.00 0.00
2:34 pm 14:34 Cloudy with Light Rain 64 17.8 57 13.9 78 78 NW 6 9 29.91 1013 10 16 0.00 0.00
2:41 pm 14:41 Cloudy 65 18.3 57 13.9 76 76 N 6 9 29.90 1013 10 16 0.00 0.00
2:53 pm 14:53 Cloudy 66 18.9 57 13.9 73 73 VRB 5 7 29.90 1013 10 16 0.00 0.00
3:53 pm 15:53 Mostly Cloudy 66 18.9 56 13.3 70 70 NW 7 11 29.89 1012 10 16 0.00 0.00
4:53 pm 16:53 Cloudy 66 18.9 55 12.8 68 68 NW 6 9 29.88 1012 10 16 0.00 0.00
5:53 pm 17:53 Mostly Cloudy 65 18.3 56 13.3 73 73 Calm 29.88 1012 10 16 0.00 0.00
6:53 pm 18:53 Cloudy with Rain 63 17.2 57 13.9 81 81 SSW 8 13 29.88 1012 10 16 0.05 1.27
7:53 pm 19:53 Cloudy 62 16.7 58 14.4 86 86 NNE 3 6 29.90 1013 10 16 0.05 1.27
8:53 pm 20:53 Cloudy 62 16.7 59 15 90 90 ENE 5 7 29.91 1013 10 16 0.00 0.00
9:53 pm 21:53 Mostly Cloudy 62 16.7 58 14.4 86 86 E 3 6 29.93 1013 10 16 0.00 0.00
10:53 pm 22:53 Mostly Cloudy 60 15.6 59 15 96 96 WNW 3 6 29.93 1014 10 16 0.00 0.00
11:53 pm 23:53 Cloudy 60 15.6 59 15 96 96 NW 5 7 29.94 1014 10 16 0.00 0.00

Powered by AerisWeather